Weather History for Jacksonville NAS, FL

Change the Weather History Date:

Saturday, November 3, 2012

  Actual Average Record
Temperature  
Mean Temperature 70 °F -  
Max Temperature 82 °F 74 °F 84 °F (2004)
Min Temperature 59 °F 58 °F 43 °F (1999)
Cooling Degree Days 6    
Growing Degree Days 20 (Base 50)    
Moisture  
Dew Point 58 °F    
Average Humidity 77    
Maximum Humidity 100    
Minimum Humidity 37    
Precipitation  
Precipitation 0.00 in - - ()
Sea Level Pressure  
Sea Level Pressure 30.08 in    
Wind  
Wind Speed 4 mph (SSW)    
Max Wind Speed 8 mph    
Max Gust Speed -    
Visibility 8 miles    
Events Fog    
Averages and records for this station are not official NWS values.
T = Trace of Precipitation, MM = Missing Value Source: NWS Daily Summary

Daily Weather History Graph

Daily Weather History Graph

Search for Another Location

Airport:

Trip Planner

Search our weather history database for the weather conditions in past years. The results will help you decide how hot, cold, wet, or windy it might be!

Date:

Astronomy

Nov. 03, 2012 Rise Set
Actual Time 7:42 AM EDT 6:37 PM EDT
Civil Twilight 7:17 AM EDT 7:02 PM EDT
Nautical Twilight 6:49 AM EDT 7:30 PM EDT
Astronomical Twilight 6:21 AM EDT 7:58 PM EDT
Moon 10:23 PM EDT (11/3) 11:38 AM EDT (11/3)
Length of Visible Light 11h 44m
Length of Day
10h 54m
Waning Gibbous, 80% of the Moon is Illuminated
Nov 3
Waning Gibbous
Nov 6
Last Quarter
Nov 13
New
Nov 20
First Quarter
Nov 28
Full

Hourly Weather History & Observations

Time (EDT) Temp. Heat Index Dew Point Humidity Pressure Visibility Wind Dir Wind Speed Gust Speed Precip Events Conditions
12:53 AM 62.1 °F - 54.0 °F 75% 30.04 in 10.0 mi WSW 6.9 mph - N/A   Clear
1:53 AM 60.1 °F - 54.0 °F 80% 30.04 in 10.0 mi Calm Calm - N/A   Clear
2:53 AM 61.0 °F - 55.9 °F 83% 30.04 in 10.0 mi Calm Calm - N/A   Clear
3:53 AM 61.0 °F - 57.0 °F 87% 30.04 in 10.0 mi SW 4.6 mph - N/A   Clear
4:53 AM 60.1 °F - 57.9 °F 93% 30.04 in 10.0 mi SW 3.5 mph - N/A   Clear
5:53 AM 59.0 °F - 57.0 °F 93% 30.06 in 10.0 mi WSW 5.8 mph - N/A   Clear
6:53 AM 59.0 °F - 57.0 °F 93% 30.07 in 9.0 mi WSW 5.8 mph - N/A   Scattered Clouds
7:18 AM 59.0 °F - 57.2 °F 94% 30.09 in 7.0 mi West 3.5 mph - N/A   Mostly Cloudy
7:40 AM 60.8 °F - 59.0 °F 94% 30.10 in 0.8 mi WSW 4.6 mph - N/A   Overcast
7:54 AM 60.8 °F - 60.8 °F 100% 30.10 in 0.2 mi Calm Calm - N/A Fog Fog
8:19 AM 60.8 °F - 60.8 °F 100% 30.11 in 0.5 mi Variable 3.5 mph - N/A Fog Fog
8:53 AM 60.1 °F - 60.1 °F 100% 30.11 in 0.5 mi West 3.5 mph - N/A Fog Fog
9:35 AM 60.8 °F - 60.8 °F 100% 30.13 in 0.8 mi West 4.6 mph - N/A   Mist
9:53 AM 62.1 °F - 61.0 °F 96% 30.12 in 2.5 mi WNW 5.8 mph - N/A   Mist
10:00 AM 62.6 °F - 60.8 °F 94% 30.13 in 3.0 mi West 4.6 mph - N/A   Mist
10:08 AM 62.6 °F - 60.8 °F 94% 30.14 in 6.0 mi WNW 4.6 mph - N/A   Mostly Cloudy
10:37 AM 64.4 °F - 60.8 °F 88% 30.14 in 9.0 mi Calm Calm - N/A   Scattered Clouds
10:53 AM 66.0 °F - 61.0 °F 84% 30.13 in 10.0 mi Calm Calm - N/A   Clear
11:53 AM 68.0 °F - 62.1 °F 81% 30.12 in 10.0 mi SE 4.6 mph - N/A   Clear
12:53 PM 72.0 °F - 61.0 °F 68% 30.10 in 10.0 mi ESE 4.6 mph - N/A   Clear
1:53 PM 75.9 °F - 59.0 °F 56% 30.08 in 10.0 mi ESE 5.8 mph - N/A   Clear
2:53 PM 82.0 °F 81.4 °F 55.0 °F 39% 30.05 in 10.0 mi Calm Calm - N/A   Clear
3:53 PM 82.9 °F 81.9 °F 54.0 °F 37% 30.04 in 10.0 mi NNE 4.6 mph - N/A   Clear
4:53 PM 82.0 °F 81.3 °F 54.0 °F 38% 30.04 in 10.0 mi ESE 4.6 mph - N/A   Clear
5:53 PM 82.0 °F 81.2 °F 53.1 °F 37% 30.04 in 10.0 mi SE 3.5 mph - N/A   Clear
6:53 PM 73.9 °F - 61.0 °F 64% 30.05 in 10.0 mi ESE 8.1 mph - N/A   Clear
7:53 PM 73.9 °F - 57.0 °F 55% 30.06 in 10.0 mi SE 4.6 mph - N/A   Clear
8:53 PM 72.0 °F - 55.9 °F 57% 30.07 in 10.0 mi SSE 4.6 mph - N/A   Clear
9:53 PM 71.1 °F - 55.9 °F 59% 30.08 in 10.0 mi SSE 5.8 mph - N/A   Clear
10:53 PM 70.0 °F - 57.0 °F 63% 30.08 in 10.0 mi South 5.8 mph - N/A   Clear
11:53 PM 68.0 °F - 57.9 °F 70% 30.08 in 10.0 mi SSW 4.6 mph - N/A   Clear